Weather History for Colby, KS

Change the Weather History Date:

Monday, August 6, 2012

  Actual Average (KGLD) Record (KGLD)
Temperature  
Mean Temperature 84 °F 75 °F  
Max Temperature 102 °F 89 °F 108 °F (1970)
Min Temperature 66 °F 62 °F 42 °F (1974)
Degree Days  
Heating Degree Days 0 0  
Month to date heating degree days 0  
Since 1 June heating degree days 41  
Since 1 July heating degree days 4  
Cooling Degree Days 19 10  
Month to date cooling degree days 62  
Year to date cooling degree days 616  
Since 1 June cooling degree days 575  
Growing Degree Days 34 (Base 50)    
Moisture  
Dew Point 56 °F    
Average Humidity 42    
Maximum Humidity 64    
Minimum Humidity 21    
Precipitation  
Precipitation 0.00 in 0.11 in 1.71 in (1997)
Month to date precipitation 0.64  
Year to date precipitation 13.84  
Snow  
Snow - 0.00 in - ()
Month to date snowfall 0.0  
Since 1 June snowfall 0.0  
Since 1 July snowfall 0.0  
Snow Depth -    
Sea Level Pressure  
Sea Level Pressure 30.11 in    
Wind  
Wind Speed 10 mph ()    
Max Wind Speed 17 mph    
Max Gust Speed 22 mph    
Visibility 10.0 miles    
Events      
T = Trace of Precipitation, MM = Missing Value Source: Averaged Metar Reports

Daily Weather History Graph

Daily Weather History Graph

Search for Another Location

Airport:

Trip Planner

Search our weather history database for the weather conditions in past years. The results will help you decide how hot, cold, wet, or windy it might be!

Date:

Astronomy

Aug. 06, 2012 Rise Set
Actual Time 6:48 AM CDT 8:50 PM CDT
Civil Twilight 6:19 AM CDT 9:19 PM CDT
Nautical Twilight 5:43 AM CDT 9:55 PM CDT
Astronomical Twilight 5:04 AM CDT 10:34 PM CDT
Moon 11:02 PM CDT (8/6) 11:38 AM CDT (8/6)
Length of Visible Light 15h 00m
Length of Day
14h 01m
Waning Gibbous, 78% of the Moon is Illuminated
Aug 6
Waning Gibbous
Aug 9
Last Quarter
Aug 17
New
Aug 24
First Quarter
Aug 31
Full

Hourly Weather History & Observations

Time (CDT) Temp. Heat Index Dew Point Humidity Pressure Visibility Wind Dir Wind Speed Gust Speed Precip Events Conditions
12:15 AM 71.6 °F - 50.0 °F 46% 30.21 in 10.0 mi SSE 9.2 mph - N/A   Clear
12:35 AM 69.8 °F - 50.0 °F 49% 30.21 in 10.0 mi SSE 11.5 mph - N/A   Clear
12:55 AM 69.8 °F - 50.0 °F 49% 30.20 in 10.0 mi SSE 12.7 mph - N/A   Clear
1:15 AM 69.8 °F - 50.0 °F 49% 30.20 in 10.0 mi SSE 11.5 mph - N/A   Clear
1:35 AM 69.8 °F - 50.0 °F 49% 30.19 in 10.0 mi SSE 12.7 mph - N/A   Clear
1:55 AM 69.8 °F - 50.0 °F 49% 30.19 in 10.0 mi SSE 12.7 mph - N/A   Clear
2:15 AM 69.8 °F - 50.0 °F 49% 30.18 in 10.0 mi SSE 11.5 mph - N/A   Clear
2:35 AM 69.8 °F - 50.0 °F 49% 30.19 in 10.0 mi South 10.4 mph - N/A   Clear
2:55 AM 68.0 °F - 50.0 °F 52% 30.18 in 10.0 mi SSE 8.1 mph - N/A   Clear
3:15 AM 68.0 °F - 50.0 °F 52% 30.18 in 10.0 mi South 8.1 mph - N/A   Clear
3:35 AM 68.0 °F - 50.0 °F 52% 30.18 in 10.0 mi South 8.1 mph - N/A   Clear
3:55 AM 68.0 °F - 51.8 °F 56% 30.18 in 10.0 mi South 9.2 mph - N/A   Clear
4:15 AM 68.0 °F - 51.8 °F 56% 30.18 in 10.0 mi South 6.9 mph - N/A   Clear
4:35 AM 68.0 °F - 51.8 °F 56% 30.17 in 10.0 mi South 10.4 mph - N/A   Clear
4:55 AM 68.0 °F - 51.8 °F 56% 30.17 in 10.0 mi South 9.2 mph - N/A   Clear
5:15 AM 68.0 °F - 51.8 °F 56% 30.17 in 10.0 mi South 9.2 mph - N/A   Clear
5:35 AM 68.0 °F - 51.8 °F 56% 30.16 in 10.0 mi South 10.4 mph - N/A   Clear
6:15 AM 68.0 °F - 51.8 °F 56% 30.16 in 10.0 mi South 11.5 mph - N/A   Clear
6:55 AM 66.2 °F - 53.6 °F 64% 30.17 in 10.0 mi South 8.1 mph - N/A   Clear
7:15 AM 66.2 °F - 53.6 °F 64% 30.17 in 10.0 mi South 6.9 mph - N/A   Clear
7:35 AM 66.2 °F - 53.6 °F 64% 30.17 in 10.0 mi South 8.1 mph - N/A   Clear
8:15 AM 69.8 °F - 57.2 °F 64% 30.17 in 10.0 mi South 9.2 mph - N/A   Clear
8:55 AM 73.4 °F - 59.0 °F 61% 30.16 in 10.0 mi South 13.8 mph 19.6 mph N/A   Clear
9:15 AM 77.0 °F - 59.0 °F 54% 30.15 in 10.0 mi South 12.7 mph 18.4 mph N/A   Clear
9:35 AM 77.0 °F - 60.8 °F 57% 30.15 in 10.0 mi South 13.8 mph 20.7 mph N/A   Clear
9:55 AM 78.8 °F - 60.8 °F 54% 30.14 in 10.0 mi South 16.1 mph - N/A   Clear
10:15 AM 80.6 °F 81.5 °F 60.8 °F 51% 30.14 in 10.0 mi South 15.0 mph 20.7 mph N/A   Clear
10:35 AM 82.4 °F 83.4 °F 62.6 °F 51% 30.13 in 10.0 mi South 13.8 mph - N/A   Clear
10:55 AM 86.0 °F 86.6 °F 62.6 °F 45% 30.13 in 10.0 mi South 13.8 mph 19.6 mph N/A   Clear
11:15 AM 87.8 °F 88.5 °F 62.6 °F 43% 30.12 in 10.0 mi South 16.1 mph 21.9 mph N/A   Clear
11:35 AM 89.6 °F 90.1 °F 62.6 °F 40% 30.12 in 10.0 mi SSW 17.3 mph 20.7 mph N/A   Clear
11:55 AM 89.6 °F 90.1 °F 62.6 °F 40% 30.11 in 10.0 mi South 12.7 mph - N/A   Clear
12:15 PM 91.4 °F 92.1 °F 62.6 °F 38% 30.11 in 10.0 mi SSW 11.5 mph - N/A   Clear
12:35 PM 95.0 °F 96.0 °F 62.6 °F 34% 30.11 in 10.0 mi SSW 13.8 mph 20.7 mph N/A   Clear
12:55 PM 95.0 °F 96.0 °F 62.6 °F 34% 30.10 in 10.0 mi South 12.7 mph 19.6 mph N/A   Clear
1:15 PM 95.0 °F 95.2 °F 60.8 °F 32% 30.09 in 10.0 mi South 12.7 mph 18.4 mph N/A   Clear
1:35 PM 96.8 °F 97.1 °F 60.8 °F 30% 30.08 in 10.0 mi SSW 12.7 mph 18.4 mph N/A   Clear
1:55 PM 96.8 °F 97.1 °F 60.8 °F 30% 30.08 in 10.0 mi South 10.4 mph 16.1 mph N/A   Clear
2:15 PM 98.6 °F 98.5 °F 59.0 °F 27% 30.07 in 10.0 mi South 10.4 mph 19.6 mph N/A   Clear
2:35 PM 100.4 °F 100.2 °F 59.0 °F 25% 30.07 in 10.0 mi South 11.5 mph 16.1 mph N/A   Clear
2:55 PM 98.6 °F 97.2 °F 55.4 °F 24% 30.07 in 10.0 mi South 9.2 mph 16.1 mph N/A   Clear
3:15 PM 100.4 °F 98.8 °F 55.4 °F 22% 30.06 in 10.0 mi SE 13.8 mph 19.6 mph N/A   Clear
3:35 PM 100.4 °F 98.8 °F 55.4 °F 22% 30.05 in 10.0 mi South 12.7 mph 20.7 mph N/A   Clear
3:55 PM 100.4 °F 98.4 °F 53.6 °F 21% 30.04 in 10.0 mi SSE 4.6 mph - N/A   Clear
4:15 PM 100.4 °F 98.4 °F 53.6 °F 21% 30.04 in 10.0 mi South 5.8 mph - N/A   Clear
4:35 PM 102.2 °F 100.9 °F 55.4 °F 21% 30.03 in 10.0 mi SSE 13.8 mph - N/A   Clear
4:55 PM 100.4 °F 98.4 °F 53.6 °F 21% 30.02 in 10.0 mi South 6.9 mph 18.4 mph N/A   Clear
5:15 PM 100.4 °F 98.4 °F 53.6 °F 21% 30.02 in 10.0 mi South 11.5 mph - N/A   Clear
5:35 PM 100.4 °F 98.4 °F 53.6 °F 21% 30.02 in 10.0 mi South 9.2 mph - N/A   Clear
5:55 PM 98.6 °F 96.4 °F 53.6 °F 22% 30.02 in 10.0 mi South 10.4 mph 16.1 mph N/A   Clear
6:15 PM 96.8 °F 95.1 °F 55.4 °F 25% 30.02 in 10.0 mi SSE 10.4 mph - N/A   Clear
7:15 PM 96.8 °F 95.1 °F 55.4 °F 25% 30.02 in 10.0 mi SE 5.8 mph - N/A   Clear
7:35 PM 96.8 °F 96.2 °F 59.0 °F 28% 30.02 in 10.0 mi SE 5.8 mph - N/A   Clear
7:55 PM 93.2 °F 92.6 °F 59.0 °F 32% 30.02 in 10.0 mi SE 6.9 mph - N/A   Clear
8:15 PM 89.6 °F 88.9 °F 59.0 °F 36% 30.02 in 10.0 mi SE 5.8 mph - N/A   Clear
8:35 PM 87.8 °F 87.6 °F 60.8 °F 40% 30.02 in 10.0 mi SSE 6.9 mph - N/A   Clear
9:15 PM 86.0 °F 84.9 °F 57.2 °F 37% 30.02 in 10.0 mi SSE 6.9 mph - N/A   Clear
9:35 PM 82.4 °F 82.0 °F 57.2 °F 42% 30.02 in 10.0 mi SSE 8.1 mph - N/A   Clear
9:55 PM 84.2 °F 83.5 °F 57.2 °F 40% 30.04 in 10.0 mi SSE 8.1 mph - N/A   Clear
10:15 PM 82.4 °F 82.0 °F 57.2 °F 42% 30.04 in 10.0 mi SSE 6.9 mph - N/A   Clear
10:35 PM 82.4 °F 82.0 °F 57.2 °F 42% 30.04 in 10.0 mi SSE 9.2 mph - N/A   Clear
10:55 PM 80.6 °F 81.1 °F 59.0 °F 48% 30.04 in 10.0 mi SSE 8.1 mph - N/A   Clear
11:15 PM 80.6 °F 81.1 °F 59.0 °F 48% 30.04 in 10.0 mi SSE 8.1 mph - N/A   Clear
11:35 PM 78.8 °F - 59.0 °F 51% 30.03 in 10.0 mi SSE 6.9 mph - N/A   Clear
11:55 PM 80.6 °F 81.1 °F 59.0 °F 48% 30.04 in 10.0 mi SSE 9.2 mph - N/A   Clear